Location: Breithurst
(48.6843°N, 8.0794°E)
Time: 01:44:39
(UTC+00:00)

Daily predictions for brighter satellites

Satellite Brightness Start Highest point End
(mag) Time Altitude Azimuth Time Altitude Azimuth Time Altitude Azimuth
Cosmos 2151 Rocket 3.5 00:00:59 10° NNW 00:05:32 76° W 00:06:04 65° SSW
Cosmos 1766 3.4 00:02:50 10° NNW 00:06:41 61° W 00:06:41 61° W
NOSS 2-1 (C) 4.4 00:07:46 10° NW 00:12:38 55° SW 00:14:13 43° S
COSMOS 2487 3.5 00:12:29 10° NNW 00:14:48 35° WNW 00:14:48 35° WNW
Helios 1A 3.0 00:16:33 58° SE 00:17:17 76° ENE 00:21:27 10° N
USA 276 4.2 00:20:13 20° E 00:20:13 20° E 00:21:22 10° E
Cosmos 2227 Rocket 3.1 00:12:53 10° NNW 00:18:20 45° NE 00:23:44 10° SE
NOSS 2-1 (D) 4.5 00:14:38 10° NW 00:19:29 49° SW 00:20:49 42° SSW
Cosmos 2297 Rocket 2.7 00:15:32 10° NNW 00:21:10 59° ENE 00:25:29 17° SE
Cosmos 1470 2.7 00:23:21 10° N 00:27:17 80° ENE 00:27:45 67° SE
USA 81 4.3 00:23:08 10° NNW 00:28:19 56° W 00:29:41 43° SW
YAOGAN 11 3.9 00:28:55 61° SSW 00:29:34 75° WSW 00:33:54 10° NNW
Cosmos 2100 Rocket 4.3 00:23:53 10° N 00:30:09 64° ENE 00:33:57 25° SSE
Cosmos 1726 2.0 00:26:59 10° N 00:30:42 76° E 00:30:58 71° SE
BREEZE-M DEB (TANK) 4.1 00:32:59 26° SE 00:34:11 28° ESE 00:42:40 10° ENE
Cosmos 1400 Rocket 3.2 00:36:21 10° NNW 00:40:19 48° W 00:40:29 48° WSW
Cosmos 1758 3.4 00:37:09 10° N 00:41:16 75° E 00:42:13 50° SSE
Cosmos 1975 Rocket 4.0 00:39:57 29° SE 00:41:26 39° E 00:45:28 10° NNE
Cosmos 1842 3.5 00:42:19 49° W 00:42:40 51° WNW 00:46:29 10° N
Cosmos 1656 4.1 00:41:00 34° SSE 00:42:56 50° ESE 00:48:16 10° NE
Cosmos 1378 Rocket 3.7 00:43:15 50° SW 00:44:05 61° WNW 00:48:22 10° N
Cosmos 1315 Rocket 3.0 00:42:32 10° N 00:46:32 65° ENE 00:47:46 41° SE
Cosmos 2251 Rocket 3.5 00:43:23 10° NNW 00:48:40 85° ENE 00:51:33 28° SSE
Cosmos 1626 4.4 00:49:57 14° ESE 00:51:42 18° E 00:54:18 10° NE
COSMOS 2455 2.8 00:46:07 10° NW 00:52:05 65° WSW 00:55:11 29° S
Okean 2 3.6 00:53:24 48° WSW 00:54:12 58° WNW 00:58:20 10° N
ISS -3.1 00:51:43 10° WNW 00:55:04 55° N 00:58:24 10° E
Cosmos 614 Rocket 4.0 00:50:12 10° NNW 00:55:19 75° ENE 00:58:46 21° SSE
Cosmos 1727 Rocket 4.1 00:55:09 34° SSW 00:58:02 68° WNW 01:04:24 10° N
SeaSat 1 3.3 00:54:37 10° NNE 00:59:15 41° NW 01:01:43 24° WSW
SL-16 R/B 2.5 01:00:16 21° SSE 01:04:40 89° ENE 01:10:59 10° NNW
Okean 1 Rocket 3.7 01:01:10 10° NNW 01:05:14 38° W 01:05:54 35° WSW
Cosmos 2219 3.1 00:59:36 10° NNW 01:05:20 79° WSW 01:09:19 21° SSE
Cosmos 1025 Rocket 4.2 01:04:24 22° SE 01:06:39 37° E 01:10:43 10° NNE
CZ-4 R/B 4.2 01:02:43 10° N 01:07:26 52° WNW 01:09:13 34° SW
Cosmos 2263 Rocket 4.3 01:08:53 10° NNW 01:13:42 27° NE 01:18:29 10° ESE
Cosmos 1707 3.0 01:12:57 44° WSW 01:13:44 54° WNW 01:17:31 10° N
ADEOS Rocket 4.2 01:08:11 10° SE 01:15:28 55° ENE 01:23:01 10° N
Cosmos 371 Rocket 3.3 01:14:23 36° SSW 01:16:25 82° ESE 01:21:21 10° NNE
ADEOS II 2.9 01:14:30 10° NNE 01:19:31 43° E 01:23:07 18° SSE
USA 215 3.8 01:17:22 26° S 01:20:00 35° SW 01:25:54 10° WNW
Helios 1B rocket 2.4 01:16:48 10° NNE 01:20:57 85° ESE 01:22:33 37° S
Cosmos 1932 4.5 01:17:39 29° SW 01:21:11 89° NW 01:27:34 10° NE
Cosmos 332 Rocket 4.1 01:19:00 29° S 01:21:21 58° ESE 01:26:08 10° NNE
ATLAS CENTAUR R/B 3.9 01:19:39 10° WNW 01:21:42 14° NNW 01:23:49 10° N
NPP 3.7 01:19:28 10° NNE 01:24:55 80° ESE 01:28:00 26° S
Cosmos 1725 Rocket 4.0 01:19:38 10° N 01:25:56 86° E 01:31:00 16° S
CZ-2D R/B 2.1 01:20:48 10° NNE 01:26:15 85° WNW 01:29:08 28° SSW
Cosmos 1908 3.2 01:22:49 10° N 01:26:44 88° ENE 01:28:33 30° S
Cosmos 1459 Rocket 4.2 01:24:34 10° NNW 01:30:39 54° W 01:34:06 25° SSW
APEX 3.8 01:26:25 10° NNW 01:30:49 88° ENE 01:36:21 10° SSE
USA 281 3.5 01:28:44 24° SSW 01:32:26 46° WSW 01:38:44 10° NW
AQUA 3.9 01:28:09 10° NNE 01:32:57 78° ESE 01:35:38 26° S
Resurs 1-4 Rocket 2.1 01:27:52 10° N 01:33:07 73° WNW 01:36:01 27° SSW
Cosmos 1544 Rocket 3.5 01:28:58 10° N 01:33:24 87° E 01:36:15 22° S
Lacrosse 5 2.5 01:29:52 16° W 01:33:51 51° NNW 01:38:50 10° NE
Cosmos 2233 Rocket 4.3 01:28:59 10° N 01:35:12 68° ENE 01:41:19 10° SSE
Meteor 1-28 Rocket 4.0 01:34:00 11° SSE 01:37:26 49° ENE 01:41:02 10° N
Meteor 1-16 Rocket 4.3 01:33:38 10° NNW 01:39:31 67° W 01:43:40 20° S
Lacrosse 4 Rocket 2.1 01:37:27 25° S 01:39:43 49° ESE 01:43:59 10° NE
Cosmos 2016 Rocket 4.0 01:34:02 10° NNW 01:40:14 67° W 01:44:39 20° S
Cosmos 1953 2.4 01:36:22 10° NNW 01:40:16 55° W 01:41:52 32° SSW
Cosmos 1697 Rocket 2.8 01:37:11 25° SSW 01:40:34 73° ESE 01:46:11 10° NNE
Cosmos 407 Rocket 3.5 01:37:54 10° NNW 01:43:17 82° WSW 01:48:38 10° SSE
Cosmos 1455 Rocket 3.4 01:39:17 10° NNW 01:43:27 46° W 01:45:16 29° SSW
CZ-3B R/B 3.8 01:22:04 10° WSW 01:43:31 85° NNW 01:48:09 10° ENE
Cosmos 2061 Rocket 4.1 01:42:50 10° NNW 01:49:04 62° W 01:53:55 18° S
Timation 2 Rocket 4.3 01:44:04 10° NW 01:49:37 41° WSW 01:53:37 18° S
Landsat 4 3.6 01:46:01 10° NNE 01:49:47 82° WNW 01:51:42 28° SSW
Cosmos 1980 Rocket 2.8 01:48:51 16° S 01:53:08 50° ESE 01:58:35 10° NE
USA 276 2.3 01:52:28 21° W 01:54:29 71° N 01:57:39 10° ENE
Cosmos 1536 Rocket 3.8 01:51:33 18° S 01:54:47 67° E 01:59:13 10° NNE
Cosmos 1624 Rocket 4.5 01:51:07 17° S 01:55:04 59° ESE 02:00:20 10° NNE
GP-B 3.2 01:52:55 10° N 01:57:22 81° E 02:01:02 15° S
Cosmos 2285 Rocket 4.4 01:55:41 15° S 02:01:04 63° ESE 02:07:25 10° NNE
Meteor 1-29 3.1 01:58:54 10° N 02:02:14 56° WNW 02:03:52 27° SW
Cosmos 2227 Rocket 2.9 01:57:12 10° NW 02:02:15 34° WSW 02:05:43 18° SSW
Cosmos 2297 Rocket 3.2 02:00:13 10° NW 02:04:48 26° WSW 02:07:14 19° SW
Cosmos 1674 3.7 02:06:17 22° WSW 02:08:02 32° WNW 02:11:32 10° N
Cosmos 1954 Rocket 4.1 02:06:10 10° NNW 02:11:29 84° ENE 02:16:47 10° SSE
CZ-4C R/B 3.4 02:07:50 10° SSE 02:12:07 85° WSW 02:16:15 10° NNW
Cosmos 2369 3.7 02:08:56 18° SSW 02:13:17 86° WNW 02:19:04 10° NNE
Cosmos 2278 4.0 02:09:55 14° S 02:14:46 64° ESE 02:20:26 10° NNE
SL-14 R/B 3.2 02:13:00 18° SSW 02:15:46 74° W 02:19:46 10° N
Cosmos 2056 Rocket 3.5 02:12:37 16° SSW 02:16:41 85° ESE 02:21:51 10° NNE
ARGOS Delta rocket 4.3 02:13:18 10° N 02:17:44 46° WNW 02:21:12 17° SW
Cosmos 2082 4.0 02:12:26 10° NW 02:17:54 48° WSW 02:23:21 10° S
Cosmos 405 3.4 02:14:35 10° N 02:18:06 64° ENE 02:21:34 10° SSE
Spot 1 4.3 02:14:47 10° S 02:19:30 77° WSW 02:24:31 10° NNW
MSX 4.4 02:14:29 10° NNE 02:20:12 57° E 02:25:52 10° S
Cosmos 304 Rocket 4.2 02:17:54 18° SW 02:21:17 50° WNW 02:26:00 10° NNE
Cosmos 1626 3.0 02:24:28 18° SW 02:26:40 35° WNW 02:30:06 10° N
CZ-2C R/B 4.5 02:22:54 10° NE 02:27:11 26° E 02:31:30 10° SSE
SL-16 R/B 3.9 02:23:38 10° SSE 02:28:24 29° ESE 02:33:11 10° NE
Cosmos 1371 Rocket 4.1 02:25:13 15° SSW 02:29:31 69° WNW 02:34:44 10° NNE
ISS -3.6 02:28:36 10° WNW 02:31:54 51° SSW 02:35:11 10° SE
Aureole 2 Rocket 1.6 02:31:11 10° NNW 02:33:52 88° W 02:36:34 10° SSE
IRS-1D 3.9 02:29:22 10° N 02:34:36 57° WNW 02:39:29 12° SW
Cosmos 1300 3.1 02:32:51 10° NNW 02:36:30 43° W 02:40:07 10° SSW
Cosmos 1140 Rocket 4.2 02:33:28 10° NW 02:38:07 33° WSW 02:42:45 10° SSW
IDEFIX/ARIANE 42P 2.6 02:35:33 10° NNE 02:40:50 76° WNW 02:46:06 10° SSW
Cosmos 1891 Rocket 4.5 02:35:33 10° N 02:41:40 88° E 02:47:42 10° S
Cosmos 1025 Rocket 4.4 02:41:18 12° WSW 02:44:23 24° WNW 02:47:59 10° NNW
Cosmos 1346 Rocket 3.9 02:44:16 10° SSE 02:47:58 43° E 02:51:43 10° NNE
SL-16 R/B 4.0 02:45:22 11° SW 02:49:05 18° W 02:53:11 10° NW
SL-08 R/B 3.2 02:44:41 10° SSE 02:49:22 79° WSW 02:54:02 10° NNW
Cosmos 389 Rocket 3.7 02:48:10 10° N 02:51:34 44° ENE 02:54:54 10° SSE
Cosmos 1455 3.0 02:48:50 10° N 02:52:38 56° ENE 02:56:25 10° SSE
Meteor 2-10 Rocket 3.7 02:47:09 10° NNW 02:52:54 75° W 02:58:24 10° S
COSMOS 2441 4.4 02:50:11 10° NNE 02:55:08 88° WNW 03:00:03 10° SSW
Cosmos 2322 Rocket 3.6 02:50:39 10° S 02:55:46 36° ESE 03:00:56 10° NE
Cosmos 2263 Rocket 2.2 02:52:29 10° NNW 02:58:05 65° WSW 03:03:41 10° SSE
ADEOS II 3.1 02:54:29 10° N 02:59:04 31° WNW 03:03:38 10° WSW
IRS-P3 4.2 02:53:57 10° N 02:59:17 71° WNW 03:04:35 10° SSW
Cosmos 1892 Rocket 3.9 02:55:02 10° S 02:59:18 67° E 03:03:38 10° NNE
ADEOS Rocket 4.1 02:54:10 10° SSW 03:01:07 40° W 03:08:22 10° NNW
Meteor 1-24 Rocket 3.8 02:55:42 10° SSW 03:01:09 58° WNW 03:06:29 10° N
ARIANE 5 R/B 2.5 02:56:47 10° NNE 03:01:58 81° WNW 03:07:03 10° SSW
CZ-2D R/B 4.0 03:02:16 10° NNW 03:05:30 16° NW 03:08:42 10° W
Cosmos 2084 3.7 03:01:31 10° NW 03:05:57 81° NE 03:10:29 10° SE
Cosmos 1340 3.5 03:05:59 10° SW 03:09:24 34° WNW 03:12:52 10° N
Resurs 1-4 Rocket 4.1 03:09:31 10° NNW 03:12:04 14° NW 03:14:37 10° W
Cosmos 1420 Rocket 4.3 03:07:32 10° SW 03:12:37 54° WNW 03:17:43 10° NNE
Okean 1-7 Rocket 4.4 03:08:50 10° S 03:13:17 57° E 03:17:47 10° NNE
Cosmos 1464 Rocket 4.1 03:07:40 10° NNW 03:13:44 62° W 03:19:50 10° S
CZ-4B R/B 3.6 03:08:54 10° N 03:13:49 62° WNW 03:18:51 10° SSW
Cosmos 2058 Rocket 3.2 03:10:05 10° N 03:14:36 89° WNW 03:19:08 10° S
